Zurück zum Katalog

ONEWEB-0017

AktivKommunikationPO
NORAD 45132·PAYLOAD·🇬🇧 United Kingdom

Gestartet Feb 6, 2020 von Baikonur Cosmodrome

Loading…

Nächste Überflüge (nächste 24 Stunden)

TLE

AktuellSource: CelesTrak SupGP

Epoche: Sep 14, 2026, 21:30 UTC

1 45132C 20008B   26257.89634676 -.00000154  00000+0 -44036-3 0  2574
2 45132  87.8904  18.4065 0001588 101.7584  10.5784 13.10371437    11

Verfolge ONEWEB-0017 in Echtzeit mit AllMySat

Download on the App Store